STARLINK-35064

Last updated on Tue Oct 07 2025 00:02:06 GMT+0000 (Coordinated Universal Time)

1 65531U 25200M 25279.50003471 .00171338 00000+0 30945-2 0 9999 2 65531 97.6036 346.2127 0001517 105.5859 359.7224 15.49089575 5814
UTC large
Height (km)
Speed (km/s)
/
Latitude / Longitude
Inclination (degrees)
Orbital Period (minutes)
Azimuth
Elevation
Range (km)
Doppler Factor

Next 0 passes for location: London (51.5072 / 0.1276)

Sorry there are no passes over London.